GW5833 Weather Reports


Display with metric or nautical units.
time (UTC)temp
F
wind
direction
speed
MPH
gust
MPH
rain 1hr
in
rain 24hr
in
rain mn
in
humidity
%
barometer
mb
20260508054341 57 336 0.0 2.0 0.00 0.00 0.00 19 1018.9
20260508053837 58 37 0.0 2.0 0.00 0.00 0.00 19 1018.8
20260508053335 57 327 2.0 2.0 0.00 0.00 0.00 18 1019.1
20260508052832 56 31 0.0 3.0 0.00 0.00 0.00 20 1019.2
20260508052330 57 113 0.0 1.0 0.00 0.00 0.00 20 1018.8
20260508051826 57 130 0.0 0.0 0.00 0.00 0.00 20 1018.9
20260508051321 57 319 0.0 1.0 0.00 0.00 0.00 19 1018.9
20260508050818 57 324 1.0 2.0 0.00 0.00 0.00 20 1019.1
20260508050315 58 34 0.0 0.0 0.00 0.00 0.00 20 1019.1
20260508045811 58 347 0.0 2.0 0.00 0.00 0.00 19 1019.1
20260508045309 58 7 0.0 1.0 0.00 0.00 0.00 19 1019.3
20260508044806 58 327 1.0 2.0 0.00 0.00 0.00 19 1018.9
20260508044302 59 306 0.0 0.0 0.00 0.00 0.00 19 1018.8
20260508043758 59 343 1.0 2.0 0.00 0.00 0.00 19 1018.8
20260508043256 58 311 1.0 2.0 0.00 0.00 0.00 20 1018.8
20260508042752 58 60 0.0 0.0 0.00 0.00 0.00 19 1019.1
20260508042250 60 323 0.0 0.0 0.00 0.00 0.00 19 1018.8
20260508041746 61 50 0.0 2.0 0.00 0.00 0.00 18 1018.9
20260508041243 60 337 1.0 3.0 0.00 0.00 0.00 18 1019.1
20260508040740 59 44 0.0 1.0 0.00 0.00 0.00 18 1018.9
20260508040237 59 325 0.0 1.0 0.00 0.00 0.00 17 1018.9
20260508035734 58 29 2.0 2.0 0.00 0.00 0.00 18 1018.9
20260508035232 59 94 1.0 1.0 0.00 0.00 0.00 18 1018.9
20260508034728 60 293 0.0 0.0 0.00 0.00 0.00 18 1018.8
20260508034226 60 212 0.0 2.0 0.00 0.00 0.00 17 1018.5
20260508033722 59 49 0.0 0.0 0.00 0.00 0.00 19 1018.7
20260508033221 59 0 1.0 2.0 0.00 0.00 0.00 19 1018.5
20260508032718 59 126 0.0 1.0 0.00 0.00 0.00 20 1018.3
20260508032215 59 29 0.0 1.0 0.00 0.00 0.00 19 1018.2
20260508031712 59 32 0.0 1.0 0.00 0.00 0.00 19 1017.9
20260508031208 60 89 0.0 1.0 0.00 0.00 0.00 18 1018.0
20260508030704 61 37 0.0 0.0 0.00 0.00 0.00 17 1017.7
20260508030202 62 5 0.0 1.0 0.00 0.00 0.00 17 1017.7
20260508025658 63 76 0.0 2.0 0.00 0.00 0.00 17 1017.7
20260508025155 64 22 0.0 2.0 0.00 0.00 0.00 16 1017.6
20260508024651 63 17 1.0 3.0 0.00 0.00 0.00 16 1017.9
20260508024149 63 325 2.0 2.0 0.00 0.00 0.00 17 1017.7
20260508023645 62 24 0.0 2.0 0.00 0.00 0.00 17 1017.5
20260508023143 62 88 0.0 0.0 0.00 0.00 0.00 18 1017.3
20260508022638 63 50 0.0 2.0 0.00 0.00 0.00 17 1017.6
20260508022135 64 66 0.0 1.0 0.00 0.00 0.00 17 1017.5
20260508021631 65 64 1.0 2.0 0.00 0.00 0.00 16 1017.4
20260508021127 65 66 2.0 3.0 0.00 0.00 0.00 16 1017.2
20260508020625 66 68 1.0 2.0 0.00 0.00 0.00 16 1017.4
20260508020123 67 92 2.0 3.0 0.00 0.00 0.00 16 1017.2
20260508015620 68 55 3.0 3.0 0.00 0.00 0.00 15 1017.4
20260508015116 69 85 2.0 3.0 0.00 0.00 0.00 15 1017.2
20260508014613 70 80 1.0 3.0 0.00 0.00 0.00 14 1017.0
20260508014109 70 84 2.0 4.0 0.00 0.00 0.00 14 1017.0
20260508013605 70 92 2.0 5.0 0.00 0.00 0.00 14 1017.2
20260508013102 70 74 2.0 4.0 0.00 0.00 0.00 13 1016.8
20260508012600 71 23 2.0 4.0 0.00 0.00 0.00 13 1017.0
20260508012057 72 56 4.0 8.0 0.00 0.00 0.00 13 1016.9
20260508011555 72 69 2.0 4.0 0.00 0.00 0.00 13 1016.9
20260508011052 71 52 3.0 5.0 0.00 0.00 0.00 12 1016.9
20260508010549 72 68 3.0 4.0 0.00 0.00 0.00 12 1016.9
20260508010047 73 57 3.0 5.0 0.00 0.00 0.00 12 1016.9
20260508005543 73 132 5.0 7.0 0.00 0.00 0.00 12 1016.8
20260508005040 73 52 0.0 3.0 0.00 0.00 0.00 11 1016.8
20260508004535 73 72 4.0 4.0 0.00 0.00 0.00 12 1016.8
20260508004032 74 84 2.0 6.0 0.00 0.00 0.00 12 1016.8
20260508003529 75 150 6.0 6.0 0.00 0.00 0.00 11 1016.8
20260508003027 74 193 0.0 3.0 0.00 0.00 0.00 12 1016.8
20260508002522 75 122 0.0 7.0 0.00 0.00 0.00 11 1017.0
20260508002020 75 150 3.0 4.0 0.00 0.00 0.00 11 1016.9
20260508001516 75 190 1.0 3.0 0.00 0.00 0.00 11 1017.2
20260508001012 74 237 0.0 4.0 0.00 0.00 0.00 11 1017.2
20260508000508 73 120 3.0 4.0 0.00 0.00 0.00 11 1017.0
20260508000006 73 131 4.0 5.0 0.00 0.00 0.00 11 1016.9
20260507235502 72 110 5.0 6.0 0.00 0.00 0.00 11 1016.9
20260507235000 72 322 3.0 8.0 0.00 0.00 0.00 11 1016.9
20260507234456 73 287 4.0 4.0 0.00 0.00 0.00 11 1017.0
20260507233953 74 204 3.0 5.0 0.00 0.00 0.00 11 1017.2
20260507233449 74 146 2.0 7.0 0.00 0.00 0.00 11 1017.0
20260507232948 74 93 5.0 8.0 0.00 0.00 0.00 11 1017.4
20260507232444 73 245 2.0 5.0 0.00 0.00 0.00 11 1017.3
20260507231941 73 287 1.0 8.0 0.00 0.00 0.00 12 1017.4
20260507231437 74 94 2.0 10.0 0.00 0.00 0.00 11 1017.5
20260507230934 74 169 2.0 4.0 0.00 0.00 0.00 11 1017.5
20260507230432 73 189 0.0 4.0 0.00 0.00 0.00 11 1017.5
20260507225932 73 253 3.0 5.0 0.00 0.00 0.00 11 1017.6
20260507225428 73 181 0.0 4.0 0.00 0.00 0.00 11 1017.7
20260507224925 74 128 3.0 4.0 0.00 0.00 0.00 11 1017.7
20260507224420 73 175 0.0 9.0 0.00 0.00 0.00 11 1018.0
20260507223917 73 124 4.0 4.0 0.00 0.00 0.00 12 1017.9
20260507223414 73 250 6.0 6.0 0.00 0.00 0.00 11 1017.9
20260507222911 73 212 2.0 3.0 0.00 0.00 0.00 11 1017.9
20260507222408 73 222 2.0 7.0 0.00 0.00 0.00 11 1018.2
20260507221904 74 172 2.0 8.0 0.00 0.00 0.00 11 1018.1
20260507221401 74 350 1.0 4.0 0.00 0.00 0.00 11 1018.1
20260507220856 73 187 3.0 11.0 0.00 0.00 0.00 9 1018.2
20260507220355 72 224 2.0 5.0 0.00 0.00 0.00 13 1018.1
20260507215851 72 244 3.0 5.0 0.00 0.00 0.00 12 1018.3
20260507215348 73 149 6.0 6.0 0.00 0.00 0.00 11 1018.6
20260507214845 72 113 3.0 10.0 0.00 0.00 0.00 12 1018.6
20260507214343 72 93 1.0 8.0 0.00 0.00 0.00 12 1018.3
20260507213843 72 121 6.0 6.0 0.00 0.00 0.00 12 1018.9
20260507213341 71 40 3.0 4.0 0.00 0.00 0.00 13 1018.9
20260507212837 71 137 5.0 8.0 0.00 0.00 0.00 14 1018.8
20260507212333 71 12 0.0 6.0 0.00 0.00 0.00 14 1018.9
20260507211830 72 105 2.0 6.0 0.00 0.00 0.00 13 1019.5
20260507211327 71 149 4.0 5.0 0.00 0.00 0.00 13 1019.3
20260507210823 71 148 4.0 8.0 0.00 0.00 0.00 13 1019.2
20260507210321 71 227 3.0 4.0 0.00 0.00 0.00 13 1019.4
20260507205817 72 175 2.0 5.0 0.00 0.00 0.00 14 1019.4
20260507205314 71 197 4.0 5.0 0.00 0.00 0.00 14 1019.5
20260507204810 71 138 5.0 5.0 0.00 0.00 0.00 14 1019.8
20260507204308 71 141 2.0 12.0 0.00 0.00 0.00 14 1019.8
20260507203806 70 187 1.0 5.0 0.00 0.00 0.00 15 1019.7
20260507203303 70 133 4.0 14.0 0.00 0.00 0.00 16 1019.9
20260507202759 69 114 4.0 5.0 0.00 0.00 0.00 16 1019.8
20260507202255 69 155 3.0 11.0 0.00 0.00 0.00 17 1020.0
20260507201750 69 130 0.0 5.0 0.00 0.00 0.00 18 1020.4
20260507201247 69 205 4.0 7.0 0.00 0.00 0.00 18 1020.3
20260507200743 68 213 3.0 7.0 0.00 0.00 0.00 20 1020.1
20260507200239 68 163 0.0 4.0 0.00 0.00 0.00 20 1020.1
20260507195735 67 137 2.0 8.0 0.00 0.00 0.00 20 1020.4
20260507195233 67 243 2.0 6.0 0.00 0.00 0.00 21 1020.3
20260507194730 66 155 3.0 9.0 0.00 0.00 0.00 22 1020.6
20260507194226 66 240 2.0 6.0 0.00 0.00 0.00 22 1020.5
20260507193723 67 158 4.0 7.0 0.00 0.00 0.00 22 1020.6
20260507193214 67 176 1.0 4.0 0.00 0.00 0.00 22 1020.7
20260507192710 66 115 7.0 7.0 0.00 0.00 0.00 23 1021.0
20260507192207 66 201 2.0 8.0 0.00 0.00 0.00 23 1021.0
20260507191703 64 190 4.0 4.0 0.00 0.00 0.00 23 1021.1
20260507191201 64 74 2.0 6.0 0.00 0.00 0.00 23 1021.2
20260507190657 65 65 2.0 6.0 0.00 0.00 0.00 23 1021.5
20260507190155 64 84 3.0 4.0 0.00 0.00 0.00 23 1021.5
20260507185653 65 194 1.0 5.0 0.00 0.00 0.00 22 1021.2
20260507185149 64 210 2.0 5.0 0.00 0.00 0.00 24 1021.5
20260507184647 63 158 2.0 5.0 0.00 0.00 0.00 23 1021.6
20260507184145 64 191 6.0 7.0 0.00 0.00 0.00 23 1021.5
20260507183641 63 107 7.0 10.0 0.00 0.00 0.00 24 1021.5
20260507183138 63 50 2.0 9.0 0.00 0.00 0.00 24 1021.8
20260507182635 62 190 0.0 7.0 0.00 0.00 0.00 24 1022.1
20260507182131 63 200 2.0 10.0 0.00 0.00 0.00 24 1022.3
20260507181628 63 53 3.0 4.0 0.00 0.00 0.00 24 1022.1
20260507181124 64 177 3.0 8.0 0.00 0.00 0.00 24 1021.8
20260507180620 62 328 0.0 2.0 0.00 0.00 0.00 26 1021.9
20260507180118 62 137 6.0 7.0 0.00 0.00 0.00 26 1022.3
20260507175613 61 160 1.0 5.0 0.00 0.00 0.00 27 1022.5
20260507175111 62 133 4.0 4.0 0.00 0.00 0.00 28 1022.6
20260507174608 62 205 1.0 4.0 0.00 0.00 0.00 28 1022.3
20260507174106 61 140 1.0 7.0 0.00 0.00 0.00 30 1022.4
20260507173603 62 176 2.0 5.0 0.00 0.00 0.00 27 1022.6
20260507173100 61 336 2.0 3.0 0.00 0.00 0.00 27 1022.6
20260507172555 60 196 4.0 5.0 0.00 0.00 0.00 28 1022.4
20260507172053 60 83 3.0 6.0 0.00 0.00 0.00 27 1022.6
20260507171548 61 131 6.0 9.0 0.00 0.00 0.00 25 1022.6
20260507171045 60 213 1.0 4.0 0.00 0.00 0.00 27 1022.8
20260507170542 59 182 2.0 4.0 0.00 0.00 0.00 26 1022.9
20260507170039 58 86 2.0 6.0 0.00 0.00 0.00 26 1022.9
20260507165535 58 166 2.0 6.0 0.00 0.00 0.00 28 1022.8
20260507165031 57 75 5.0 6.0 0.00 0.00 0.00 29 1023.0
20260507164528 57 83 5.0 8.0 0.00 0.00 0.00 29 1023.1
20260507164025 57 98 2.0 6.0 0.00 0.00 0.00 28 1023.0
20260507163522 58 116 6.0 6.0 0.00 0.00 0.00 28 1023.1
20260507163020 58 228 2.0 4.0 0.00 0.00 0.00 27 1023.0
20260507162514 57 81 0.0 6.0 0.00 0.00 0.00 28 1023.0
20260507162012 57 125 5.0 6.0 0.00 0.00 0.00 30 1023.4
20260507161508 57 52 1.0 4.0 0.00 0.00 0.00 30 1023.2
20260507161005 55 141 1.0 4.0 0.00 0.00 0.00 34 1023.5
20260507160500 55 131 4.0 10.0 0.00 0.00 0.00 33 1023.2
20260507155956 57 138 4.0 7.0 0.00 0.00 0.00 32 1023.0
20260507155453 57 127 2.0 4.0 0.00 0.00 0.00 32 1023.2
20260507154950 55 5 0.0 4.0 0.00 0.00 0.00 34 1023.1
20260507154446 55 125 3.0 6.0 0.00 0.00 0.00 32 1023.5
20260507153943 55 119 0.0 5.0 0.00 0.00 0.00 32 1023.4
20260507153441 55 95 2.0 2.0 0.00 0.00 0.00 33 1023.2
20260507152936 55 325 0.0 4.0 0.00 0.00 0.00 33 1023.5
20260507152433 55 130 1.0 3.0 0.00 0.00 0.00 33 1023.2
20260507151929 53 184 0.0 2.0 0.00 0.00 0.00 35 1023.4
20260507151426 53 177 3.0 3.0 0.00 0.00 0.00 36 1023.4
20260507150922 53 121 1.0 3.0 0.00 0.00 0.00 38 1023.5
20260507150419 51 88 3.0 5.0 0.00 0.00 0.00 38 1023.5
20260507145916 53 100 1.0 3.0 0.00 0.00 0.00 38 1023.4
20260507145412 53 140 2.0 3.0 0.00 0.00 0.00 38 1023.6
20260507144909 51 173 0.0 3.0 0.00 0.00 0.00 41 1023.6
20260507144406 49 101 0.0 2.0 0.00 0.00 0.00 44 1023.7
20260507143902 51 109 4.0 4.0 0.00 0.00 0.00 42 1023.4
20260507143400 51 122 0.0 3.0 0.00 0.00 0.00 41 1023.6
20260507142856 49 37 0.0 3.0 0.00 0.00 0.00 44 1023.6
20260507142352 49 229 0.0 2.0 0.00 0.00 0.00 43 1023.5
20260507141849 47 336 1.0 3.0 0.00 0.00 0.00 45 1023.5
20260507141346 47 67 2.0 3.0 0.00 0.00 0.00 45 1023.6
20260507140842 46 343 2.0 3.0 0.00 0.00 0.00 45 1023.7
20260507140339 45 91 1.0 2.0 0.00 0.00 0.00 45 1023.7
20260507135837 41 55 0.0 3.0 0.00 0.00 0.00 49 1023.5
20260507135333 38 83 2.0 3.0 0.00 0.00 0.00 55 1023.6
20260507134831 37 43 1.0 2.0 0.00 0.00 0.00 58 1023.6
20260507134327 37 36 1.0 2.0 0.00 0.00 0.00 61 1023.5
20260507133823 37 52 3.0 3.0 0.00 0.00 0.00 61 1023.5
20260507133319 37 69 0.0 2.0 0.00 0.00 0.00 59 1023.5
20260507132818 38 58 2.0 3.0 0.00 0.00 0.00 59 1023.4
20260507132313 38 73 2.0 4.0 0.00 0.00 0.00 58 1023.2
20260507131811 37 53 3.0 3.0 0.00 0.00 0.00 58 1023.2
20260507131308 37 57 2.0 2.0 0.00 0.00 0.00 59 1023.2
20260507130804 37 321 0.0 2.0 0.00 0.00 0.00 56 1022.9
20260507130302 38 76 0.0 2.0 0.00 0.00 0.00 53 1023.1
20260507125800 37 62 1.0 2.0 0.00 0.00 0.00 53 1023.2
20260507125258 37 75 1.0 2.0 0.00 0.00 0.00 51 1023.2
20260507124754 37 53 2.0 3.0 0.00 0.00 0.00 53 1023.1
20260507124251 37 28 1.0 2.0 0.00 0.00 0.00 53 1022.9
20260507123749 37 13 0.0 2.0 0.00 0.00 0.00 53 1023.0
20260507123247 37 69 2.0 2.0 0.00 0.00 0.00 53 1022.9
20260507122742 37 38 2.0 3.0 0.00 0.00 0.00 51 1022.9
20260507122238 37 55 2.0 2.0 0.00 0.00 0.00 51 1022.8
20260507121734 37 99 1.0 2.0 0.00 0.00 0.00 50 1022.9
20260507121230 36 95 0.0 2.0 0.00 0.00 0.00 50 1023.0
20260507120726 37 296 0.0 2.0 0.00 0.00 0.00 51 1022.8
20260507120223 37 91 2.0 2.0 0.00 0.00 0.00 51 1022.8
20260507115719 37 98 0.0 2.0 0.00 0.00 0.00 49 1022.8
20260507115215 38 199 1.0 2.0 0.00 0.00 0.00 47 1022.8
20260507114711 37 77 1.0 2.0 0.00 0.00 0.00 49 1022.9
20260507114209 37 6 1.0 3.0 0.00 0.00 0.00 50 1022.9
20260507113706 38 32 1.0 1.0 0.00 0.00 0.00 49 1022.6
20260507113202 38 84 1.0 2.0 0.00 0.00 0.00 49 1022.8
20260507112700 38 197 0.0 2.0 0.00 0.00 0.00 46 1022.8
20260507112157 39 102 2.0 2.0 0.00 0.00 0.00 46 1022.6
20260507111654 40 89 0.0 4.0 0.00 0.00 0.00 45 1022.9
20260507111151 39 80 2.0 2.0 0.00 0.00 0.00 47 1022.9
20260507110647 38 65 3.0 3.0 0.00 0.00 0.00 44 1022.8
20260507110144 39 66 0.0 1.0 0.00 0.00 0.00 44 1022.9
20260507105641 39 73 0.0 1.0 0.00 0.00 0.00 45 1022.9
20260507105136 39 89 0.0 1.0 0.00 0.00 0.00 45 1023.1
20260507104634 39 0 0.0 1.0 0.00 0.00 0.00 45 1023.0
20260507104130 39 38 0.0 1.0 0.00 0.00 0.00 44 1023.0
20260507103627 39 44 0.0 2.0 0.00 0.00 0.00 43 1022.9
20260507103124 39 185 0.0 2.0 0.00 0.00 0.00 42 1022.8
20260507102620 40 326 0.0 1.0 0.00 0.00 0.00 41 1023.0
20260507102116 40 73 0.0 1.0 0.00 0.00 0.00 39 1023.1
20260507101612 41 102 0.0 1.0 0.00 0.00 0.00 38 1023.0
20260507101108 40 89 3.0 3.0 0.00 0.00 0.00 37 1023.0
20260507100605 41 74 2.0 2.0 0.00 0.00 0.00 38 1022.9
20260507100104 41 66 0.0 1.0 0.00 0.00 0.00 36 1022.6
20260507095601 42 89 0.0 1.0 0.00 0.00 0.00 37 1023.0
20260507095058 42 22 0.0 0.0 0.00 0.00 0.00 37 1022.9
20260507094554 42 269 0.0 1.0 0.00 0.00 0.00 36 1022.9
20260507094051 43 92 1.0 3.0 0.00 0.00 0.00 36 1022.9
20260507093548 42 6 0.0 1.0 0.00 0.00 0.00 35 1022.9
20260507093047 44 135 0.0 0.0 0.00 0.00 0.00 34 1022.5
20260507092543 45 89 1.0 2.0 0.00 0.00 0.00 32 1022.8
20260507092040 43 81 2.0 2.0 0.00 0.00 0.00 34 1022.9
20260507091537 43 66 0.0 0.0 0.00 0.00 0.00 35 1022.8
20260507091033 44 58 0.0 2.0 0.00 0.00 0.00 33 1023.0
20260507090528 45 346 2.0 2.0 0.00 0.00 0.00 31 1022.6
20260507090026 44 4 1.0 2.0 0.00 0.00 0.00 33 1022.8
20260507085523 44 75 0.0 2.0 0.00 0.00 0.00 33 1022.8
20260507085019 44 82 1.0 2.0 0.00 0.00 0.00 32 1022.6
20260507084516 44 51 0.0 1.0 0.00 0.00 0.00 33 1022.8
20260507084013 45 53 2.0 3.0 0.00 0.00 0.00 32 1022.5
20260507083509 46 48 0.0 2.0 0.00 0.00 0.00 31 1022.6
20260507083006 47 75 1.0 3.0 0.00 0.00 0.00 29 1022.5
20260507082502 47 191 0.0 2.0 0.00 0.00 0.00 28 1022.5
20260507081958 48 231 2.0 3.0 0.00 0.00 0.00 29 1022.4
20260507081455 49 253 0.0 2.0 0.00 0.00 0.00 27 1022.4
20260507080952 49 233 4.0 5.0 0.00 0.00 0.00 27 1022.4
20260507080448 49 240 4.0 4.0 0.00 0.00 0.00 27 1022.6
20260507075943 49 295 2.0 4.0 0.00 0.00 0.00 27 1022.6
20260507075440 49 259 4.0 5.0 0.00 0.00 0.00 27 1022.6
20260507074936 49 263 2.0 4.0 0.00 0.00 0.00 27 1022.5
20260507074433 50 259 2.0 4.0 0.00 0.00 0.00 26 1022.9
20260507073931 50 257 2.0 4.0 0.00 0.00 0.00 26 1022.5
20260507073427 50 278 2.0 4.0 0.00 0.00 0.00 26 1022.5
20260507072924 50 256 4.0 6.0 0.00 0.00 0.00 25 1022.5
20260507072422 51 258 4.0 6.0 0.00 0.00 0.00 25 1022.6
20260507071920 51 269 5.0 9.0 0.00 0.00 0.00 25 1022.6
20260507071416 51 265 6.0 8.0 0.00 0.00 0.00 25 1022.2
20260507070912 51 235 2.0 6.0 0.00 0.00 0.00 25 1022.4
20260507070410 51 253 4.0 6.0 0.00 0.00 0.00 25 1022.3
20260507065907 51 255 6.0 7.0 0.00 0.00 0.00 25 1022.3
20260507065403 51 245 5.0 10.0 0.00 0.00 0.00 25 1022.1
20260507064900 51 233 2.0 8.0 0.00 0.00 0.00 25 1022.1
20260507064359 51 226 4.0 10.0 0.00 0.00 0.00 24 1022.2
20260507063856 51 220 3.0 8.0 0.00 0.00 0.00 25 1022.1
20260507063353 52 257 4.0 7.0 0.00 0.00 0.00 24 1022.2
20260507062850 52 251 5.0 6.0 0.00 0.00 0.00 24 1022.2
20260507062347 52 244 3.0 8.0 0.00 0.00 0.00 24 1022.3
20260507061845 52 255 4.0 9.0 0.00 0.00 0.00 25 1022.2
20260507061342 51 243 4.0 5.0 0.00 0.00 0.00 25 1022.3
20260507060841 52 231 6.0 8.0 0.00 0.00 0.00 26 1022.2
20260507060338 52 246 5.0 8.0 0.00 0.00 0.00 26 1021.8
20260507055835 52 227 7.0 10.0 0.00 0.00 0.00 27 1022.2
20260507055334 52 254 3.0 8.0 0.00 0.00 0.00 27 1022.3
20260507054832 52 246 2.0 8.0 0.00 0.00 0.00 28 1022.2